Regional Weather Roundup
Issued by NWS

Home | Current Version | Previous Version | Graphics & Text | Print | Product List | Glossary On
Versions: 1 2 3 4 5 6 7 8 9 10 11 12 13 14 15 16 17 18 19 20 21 22 23 24 25 26 27 28 29 30 31 32 33 34 35 36 37 38 39 40 41 42 43 44 45 46 47 48 49 50
855
ASUS43 KDTX 300910
RWRMI
MICHIGAN HOURLY REGIONAL WEATHER ROUNDUP
NATIONAL WEATHER SERVICE DETROIT/PONTIAC MI
500 AM EDT SUN APR 30 2017

NOTE: "FAIR" INDICATES FEW OR NO CLOUDS BELOW 12,000 FEET WITH NO
SIGNIFICANT WEATHER AND/OR OBSTRUCTION TO VISIBILITY.

MIZ047>049-052>055-059>063-066>070-074>076-081>083-301000-
SOUTHEAST LOWER MICHIGAN

CITY           SKY/WX    TMP DP  RH WIND       PRES   REMARKS
ADRIAN         CLOUDY    42  41  96 E13       30.00F
ALMA           CLOUDY    40  38  93 NE17      30.07F WCI  31
ANN ARBOR      CLOUDY    43  41  93 NE12      30.02F
BAD AXE        FLURRIES  40  37  89 NE9G16    30.15S WCI  34
CARO           DRIZZLE   40  37  89 NE8       30.10F WCI  35
DETROIT CITY   CLOUDY    43  41  93 E13G22    30.05F
DETROIT        CLOUDY    44  42  93 NE8       30.04F
FLINT          CLOUDY    41  38  89 E13       30.06F
GROSSE ILE     MOCLDY    46  42  88 E13       30.02F
HILLSDALE      CLOUDY    41  37  87 E15G23    29.97F
HOWELL         CLOUDY    42  39  89 E10       30.02F

CITY           SKY/WX    TMP DP  RH WIND       PRES   REMARKS
JACKSON        CLOUDY    42  39  89 E10       30.01R
LAMBERTVILLE   CLOUDY    47  43  87 E15       30.00F
LANSING        CLOUDY    41  37  86 E12       30.04F
LAPEER         CLOUDY    41  38  90 E8G16     30.08F
MASON          CLOUDY    41  39  94 E8        30.02F
MONROE         CLOUDY    46  42  87 E13G22    30.01F
MT. CLEMENS    CLOUDY    44  42  92 NE20G26   30.03F
PONTIAC        CLOUDY    42  38  85 E13G22    30.03F
PORT HOPE        N/A     41  37  86 NE25      30.14F
PORT HURON     CLOUDY    43  37  81 E12       30.09F
TRI CITIES     LGT RAIN  42  39  89 E16       30.10F FOG
MIDLAND        LGT RAIN  42  38  83 E15G21    30.10F
TROY           CLOUDY    43  39  87 E13G18    30.06F
SAGINAW HB     DRIZZLE   41  36  81 NE16      30.08F
$$
MIZ043>046-050>051-056>058-064>065-071>073-077>080-301000-
SOUTHWEST LOWER MICHIGAN

CITY           SKY/WX    TMP DP  RH WIND       PRES   REMARKS
BATTLE CREEK   CLOUDY    42  39  89 E8        30.01R
BENTON HARBOR  LGT RAIN  44  39  82 E16       29.94R
BIG RAPIDS     MIX PCPN  39  37  90 E14G21    30.07F WCI  31
COLDWATER      CLOUDY    44  40  87 E5        29.99R
FREMONT        LGT RAIN  41  39  92 E13G18    30.06R
HOLLAND        CLOUDY    42  38  85 E12G21    30.00R
GRAND RAPIDS   CLOUDY    41  41 100 E22G29    30.00F
IONIA          DRIZZLE   40  38  93 NE9       30.05R WCI  34
KALAMAZOO      LGT RAIN  43  37  79 E9G23     29.99F
LUDINGTON      DRIZZLE   40  39  99 NE6       30.11R
MARSHALL       CLOUDY    42  39  89 NE7       30.02R
MOUNT PLEASANT DRIZZLE   41  39  93 NE8       30.09S
MUSKEGON       LGT RAIN  42  39  89 E17G23    30.03R FOG
SOUTH HAVEN    RAIN      42  39  89 E15G21    29.97R
$$
MIZ016>042-301000-
NORTHERN LOWER MICHIGAN

CITY           SKY/WX    TMP DP  RH WIND       PRES   REMARKS
ALPENA         CLOUDY    37  32  82 E13G23    30.26R WCI  29
BEAVER ISLAND  CLOUDY    42  33  70 E12G17    30.23R
BELLAIRE       FLURRIES  40  33  77 E7G22     30.20F
CADILLAC       LGT SNOW  38  37  94 E17       30.10F WCI  28
CHARLEVOIX     LGT RAIN  41  34  76 E12       30.24S
FRANKFORT      DRIZZLE   40  36  86 NE5       30.16F
GAYLORD        LGT RAIN  38  34  85 E7        30.20R WCI  33
GRAYLING       LGT SNOW  36  33  88 E13       30.18S WCI  28
HARBOR SPRINGS LGT RAIN  39  34  81 E12       30.23R WCI  32
HOUGHTON LAKE  LGT RAIN  37  34  89 NE14G23   30.16R WCI  28
MANISTEE       LGT RAIN  41  39  93 NE8       30.13F FOG
OSCODA         MIX PCPN  38  35  86 E17       30.20R WCI  29
PELLSTON       LGT RAIN  41  28  60 E13G25    30.25R
ROGERS CITY    MIX PCPN  38  32  80 E16       30.26R WCI  28
TRAVERSE CITY  LGT RAIN  42  36  79 E12       30.15F
$$
MIZ007>008-015-301000-
EASTERN UPPER MICHIGAN

CITY           SKY/WX    TMP DP  RH WIND       PRES   REMARKS
KINROSS        PTCLDY    41  27  57 E13       30.26S
MACKINAC ISLAN CLOUDY    40  31  69 E13G22    30.24S WCI  33
NEWBERRY       CLOUDY    36  31  81 E6        30.24S WCI  32
S. S. MARIE    PTCLDY    43  27  53 E6        30.26F
MUNISING         N/A     38  32  79 CALM      30.24R
$$
MIZ004>006-011>014-085-301000-
CENTRAL UPPER MICHIGAN

CITY           SKY/WX    TMP DP  RH WIND       PRES   REMARKS
MANISTIQUE     CLOUDY    38  31  76 NE3       30.23S
ESCANABA       CLOUDY    39  28  64 NE6       30.22F WCI  35
MENOMINEE      CLOUDY    39  30  70 E13       30.19F WCI  31
SAWYER-GWINN   PTCLDY    35  28  78 NE7       30.24R WCI  29
$$
MIZ001>003-009>011-084-301000-
WESTERN UPPER MICHIGAN

CITY           SKY/WX    TMP DP  RH WIND       PRES   REMARKS
IRON MOUNTAIN  CLOUDY    38  21  50 NE7       30.19F WCI  33
HOUGHTON       CLOUDY    39  18  42 E7        30.24R WCI  34
COPPER HARBOR    N/A     34  29  82 CALM      30.28R
IRONWOOD       MOCLDY    35  22  58 VRB3      30.22F
$$

ABBREVIATIONS USED IN REMARKS
   TC - TEMPERATURE IN CELSIUS
  WCI - WIND CHILL INDEX
   HX - HEAT INDEX
  VSB - VISIBILITY





USA.gov is the U.S. government's official web portal to all federal, state and local government web resources and services.